[[{"header":{"parameterUnit":"m.s-1","parameterCategory":2,"la1":30.2991,"la2":30.254,"lo1":-89.0895,"lo2":-89.0444,"dy":0.0017,"dx":0.0017,"nx":28,"ny":28,"refTime":"2024-08-11T21:00:00:Z","depth":"0","parameterNumber":2,"parameterNumberName":"U-component_of_CURRENTS"},"data":[0,0,0,0,0,0,0,0,0,0,0,0,0,0,0,0,0,0,0,0,0,0,0,0,0,0,0,0,0,0,0,0,0,0,0,0,0,0,0,0,0,0,0,0,0,0,0,0,0,0,0,0,0,0,0,0,0,0,0.1295,0.1295,0,0.1288,0.1287,0.1287,0.1273,0.1273,0.1273,0.1273,0.13,0.1301,0.1302,0,0,0,0,0,0,0,0,0,0,0,0,0,0.1307,0.1307,0.1295,0.1295,0.1295,0.1288,0.1287,0.1287,0.1273,0.1273,0.1273,0.1272,0.13,0.1301,0.1302,0,0,0,0,0,0,0,0,0,0,0,0,0,0.13,0.1307,0.1295,0.1288,0.1287,0.1288,0.1287,0.1287,0.1273,0.1273,0.1273,0.1272,0.1299,0.13,0.1302,0.1316,0,0,0.1306,0.1307,0,0,0,0,0,0,0,0,0.13,0.13,0.1289,0.1289,0.1288,0.1282,0.1302,0.1299,0.1273,0.1278,0.1273,0.1272,0.1298,0.1299,0.1297,0.1317,0.1318,0.1306,0.1307,0.1307,0.1308,0,0,0,0,0,0,0,0.1301,0.13,0.1291,0.1289,0.1288,0.1289,0.1287,0.1301,0.1289,0.1277,0.1276,0.1277,0.1298,0.1295,0.1297,0.1318,0.1306,0.1307,0.1308,0.1309,0.1407,0.1408,0,0,0,0,0,0,0.1304,0.13,0.1291,0.1291,0.1295,0.1289,0.1287,0.1283,0.1288,0.1289,0.1277,0.1277,0.1293,0.1296,0.1298,0.1344,0.1307,0.1309,0.1309,0.1405,0.1407,0.1409,0,0,0,0,0,0,0.1304,0.1303,0.1292,0.1297,0.1295,0.1289,0.1285,0.1283,0.1282,0.1288,0.1289,0.1277,0.1293,0.1296,0.1331,0.1344,0.1309,0.1311,0.1403,0.1405,0.1408,0.1418,0,0,0,0,0,0,0.1304,0.1303,0.1297,0.1297,0.1295,0.1302,0.1285,0.1283,0.1283,0.1282,0.1289,0.1291,0.1293,0.1329,0.1332,0.1346,0.1312,0.14,0.1404,0.1407,0.1416,0.1421,0.1426,0,0,0,0,0,0.1305,0.1299,0.1297,0.1296,0.1289,0.1303,0.1303,0.1296,0.1283,0.1291,0.1304,0.1291,0.1353,0.1332,0.1335,0.1349,0.1399,0.1403,0.1407,0.1413,0.142,0.1425,0,0,0,0,0,0,0.1301,0.1297,0.1295,0.1288,0.13,0.1301,0.1302,0.1298,0.1311,0.131,0.1312,0.1316,0.1352,0.1357,0.1334,0.1392,0.1374,0.1379,0.1378,0.1385,0.1389,0.1393,0.1313,0,0,0,0,0,0.1298,0.1292,0.13,0.1296,0.1302,0.1302,0.1303,0.1305,0.1316,0.132,0.1329,0.1346,0.1372,0.1382,0.1405,0.1433,0.1482,0.1448,0.1453,0.1457,0.1465,0.1562,0.1577,0.1422,0.1422,0.1422,0,0,0.1292,0.1293,0.1286,0.1295,0.1299,0.1305,0.1302,0.1312,0.1318,0.1323,0.1339,0.1364,0.1386,0.1421,0.1437,0.1425,0.1531,0.1462,0.1465,0.1471,0.1568,0.1583,0.1596,0.1425,0.1424,0.1424,0,0,0.1288,0.1284,0.1281,0.1292,0.1306,0.131,0.1315,0.1327,0.1335,0.1361,0.1371,0.1414,0.1435,0.1465,0.1478,0.1528,0.1557,0.1529,0.155,0.1644,0.1657,0.1669,0.1767,0.1788,0.1527,0.1528,0.1528,0,0.128,0.1279,0.1286,0.1293,0.1299,0.1312,0.1319,0.1329,0.1353,0.1378,0.137,0.145,0.1459,0.152,0.1531,0.1538,0.1598,0.1518,0.165,0.1663,0.1675,0.1772,0.1795,0.1529,0.1528,0.1528,0.1528,0,0.1281,0.1279,0.1283,0.129,0.1301,0.1313,0.1331,0.1353,0.1364,0.1387,0.1458,0.1493,0.1547,0.1552,0.1548,0.1639,0.1658,0.1646,0.163,0.1691,0.179,0.1813,0.153,0.153,0.1529,0.1529,0,0,0.1271,0.1278,0.1279,0.1291,0.1302,0.132,0.1335,0.1375,0.1416,0.1447,0.1518,0.1553,0.1593,0.1614,0.1634,0.1699,0.1831,0.1703,0.1707,0.1791,0.2055,0.2108,0.2139,0.1842,0.1846,0.1849,0.2094,0,0.1273,0.1282,0.1283,0.13,0.1313,0.133,0.1353,0.1393,0.1438,0.1516,0.1571,0.1647,0.161,0.1661,0.1717,0.1808,0.1891,0.1766,0.199,0.1997,0.203,0.2167,0.2169,0.239,0.2117,0.2121,0.2124,0,0.1289,0.1288,0.1299,0.1327,0.1336,0.1347,0.1414,0.1439,0.1535,0.1582,0.1662,0.172,0.1824,0.1792,0.1974,0.1898,0.198,0.2042,0.2053,0.2114,0.2094,0.2284,0.2444,0.2299,0.216,0.2157,0.2155,0,0.1312,0.1315,0.1326,0.1331,0.1354,0.1374,0.1393,0.1467,0.1527,0.1646,0.1733,0.1836,0.1933,0.2034,0.2141,0.2079,0.2361,0.2296,0.2427,0.2431,0.2484,0.2487,0.2525,0.2452,0.2451,0.2451,0.245,0,0.1333,0.1349,0.134,0.1349,0.1388,0.1395,0.1468,0.151,0.161,0.1711,0.178,0.1898,0.2,0.2157,0.2221,0.2421,0.2437,0.2479,0.2517,0.249,0.249,0.2405,0.2324,0.246,0.2458,0.2456,0.2455,0,0.1389,0.1367,0.1398,0.1402,0.1406,0.1446,0.1507,0.1569,0.1654,0.1798,0.1851,0.2,0.2198,0.2323,0.2522,0.2556,0.2653,0.2781,0.2745,0.2774,0.2722,0.2644,0.2663,0.2575,0.2973,0.2976,0.2978,0,0.143,0.1444,0.145,0.1458,0.1462,0.1504,0.1536,0.1595,0.1668,0.1859,0.1943,0.2168,0.2321,0.2644,0.2778,0.2975,0.28,0.3068,0.2938,0.2768,0.2708,0.2507,0.2414,0.3023,0.3026,0.3028,0.303,0,0.1506,0.1506,0.1509,0.1521,0.154,0.1574,0.162,0.1677,0.1767,0.1891,0.2057,0.2194,0.2528,0.2719,0.2986,0.3101,0.29,0.3119,0.2964,0.2789,0.2557,0.2474,0.2798,0.305,0.3048,0.3046,0.3045,0.3044,0.1559,0.1581,0.1561,0.1578,0.1593,0.1604,0.1619,0.1688,0.1781,0.1931,0.2083,0.2291,0.2589,0.2963,0.3055,0.3184,0.3051,0.3112,0.3051,0.2873,0.2722,0.3093,0.3358,0.3358,0.3357,0.3357,0.3357,0,0.1579,0.1578,0.161,0.1587,0.1586,0.1596,0.164,0.1647,0.1716,0.1919,0.2062,0.242,0.2658,0.2897,0.314,0.3087,0.2928,0.3007,0.2698,0.2622,0.3011,0.294,0.31,0.31,0.31,0.31,0.31,0.3101,0.157,0.1569,0.1575,0.1549,0.1543,0.1507,0.1509,0.1554,0.1667,0.1874,0.2092,0.2288,0.2588,0.2819,0.2878,0.2882,0.2588,0.256,0.2414,0.2654,0.2654,0.2655,0.2565,0.2644,0.2644,0.194,0.1935,0.1931]},{"header":{"parameterUnit":"m.s-1","parameterCategory":2,"la1":30.2991,"la2":30.254,"lo1":-89.0895,"lo2":-89.0444,"dy":0.0017,"dx":0.0017,"nx":28,"ny":28,"refTime":"2024-08-11T21:00:00:Z","depth":"0","parameterNumber":3,"parameterNumberName":"V-component_of_CURRENTS"},"data":[0,0,0,0,0,0,0,0,0,0,0,0,0,0,0,0,0,0,0,0,0,0,0,0,0,0,0,0,0,0,0,0,0,0,0,0,0,0,0,0,0,0,0,0,0,0,0,0,0,0,0,0,0,0,0,0,0,0,-0.04,-0.0401,0,-0.0457,-0.0457,-0.0458,-0.0516,-0.0516,-0.0517,-0.0518,-0.0535,-0.0535,-0.0535,0,0,0,0,0,0,0,0,0,0,0,0,0,-0.0354,-0.0354,-0.04,-0.0401,-0.0401,-0.0457,-0.0457,-0.0458,-0.0515,-0.0516,-0.0517,-0.0518,-0.0536,-0.0535,-0.0535,0,0,0,0,0,0,0,0,0,0,0,0,0,-0.0388,-0.0354,-0.04,-0.0437,-0.0441,-0.0456,-0.0457,-0.0458,-0.0515,-0.0516,-0.0518,-0.0519,-0.0536,-0.0535,-0.0535,-0.0508,0,0,-0.0534,-0.0533,0,0,0,0,0,0,0,0,-0.0386,-0.039,-0.0431,-0.0434,-0.0439,-0.0481,-0.0448,-0.0473,-0.0515,-0.0487,-0.0518,-0.0519,-0.0513,-0.0514,-0.0522,-0.0509,-0.051,-0.0533,-0.0533,-0.0533,-0.0533,0,0,0,0,0,0,0,-0.0383,-0.0388,-0.0422,-0.0431,-0.0436,-0.0455,-0.0461,-0.0453,-0.0491,-0.0489,-0.0494,-0.05,-0.0515,-0.0523,-0.0523,-0.051,-0.0533,-0.0533,-0.0533,-0.0533,-0.0504,-0.0503,0,0,0,0,0,0,-0.0375,-0.0385,-0.042,-0.0424,-0.0415,-0.0455,-0.0461,-0.0466,-0.0492,-0.0498,-0.0499,-0.0502,-0.0523,-0.0524,-0.0524,-0.0499,-0.0533,-0.0533,-0.0532,-0.0504,-0.0503,-0.0503,0,0,0,0,0,0,-0.0374,-0.0377,-0.0418,-0.0406,-0.0413,-0.0454,-0.0458,-0.0466,-0.0476,-0.05,-0.0505,-0.0501,-0.0524,-0.0524,-0.0519,-0.05,-0.0532,-0.0532,-0.0505,-0.0504,-0.0503,-0.0447,0,0,0,0,0,0,-0.0372,-0.0376,-0.037,-0.0405,-0.0413,-0.0417,-0.0458,-0.0466,-0.0478,-0.0483,-0.0503,-0.0506,-0.0525,-0.052,-0.0519,-0.05,-0.0532,-0.0505,-0.0504,-0.0503,-0.0449,-0.0444,-0.044,0,0,0,0,0,-0.037,-0.0347,-0.0369,-0.0373,-0.0405,-0.0416,-0.0421,-0.0455,-0.0477,-0.047,-0.0492,-0.0506,-0.0513,-0.0518,-0.0518,-0.0499,-0.0506,-0.0505,-0.0504,-0.0451,-0.0445,-0.044,0,0,0,0,0,0,-0.0313,-0.0352,-0.0377,-0.0365,-0.0388,-0.0426,-0.0418,-0.0447,-0.0459,-0.0462,-0.0493,-0.0497,-0.0488,-0.0499,-0.0504,-0.049,-0.0513,-0.0512,-0.0474,-0.0468,-0.0463,-0.0419,-0.0531,0,0,0,0,0,-0.03,-0.0298,-0.034,-0.0327,-0.0338,-0.0378,-0.0386,-0.041,-0.043,-0.0438,-0.0456,-0.0472,-0.048,-0.048,-0.0487,-0.0468,-0.047,-0.0459,-0.0454,-0.045,-0.0415,-0.0412,-0.0403,-0.0499,-0.0499,-0.0499,0,0,-0.0271,-0.0293,-0.029,-0.0316,-0.0336,-0.0345,-0.0385,-0.0387,-0.0392,-0.0434,-0.0432,-0.0451,-0.0473,-0.0463,-0.0459,-0.047,-0.0428,-0.0448,-0.0444,-0.0411,-0.041,-0.04,-0.0392,-0.0498,-0.0498,-0.0499,0,0,-0.0222,-0.0236,-0.0228,-0.0248,-0.0277,-0.0301,-0.0301,-0.0336,-0.0348,-0.035,-0.0386,-0.0385,-0.0401,-0.0408,-0.0416,-0.0382,-0.0404,-0.0398,-0.0333,-0.0332,-0.0323,-0.0315,-0.0319,-0.0313,-0.0394,-0.0394,-0.0394,0,-0.0184,-0.0195,-0.0223,-0.0229,-0.0238,-0.0281,-0.0278,-0.0291,-0.032,-0.0306,-0.0339,-0.034,-0.0369,-0.0342,-0.0345,-0.0367,-0.0376,-0.0354,-0.0323,-0.0316,-0.0309,-0.0315,-0.0308,-0.0391,-0.0392,-0.0392,-0.0392,0,-0.015,-0.0159,-0.015,-0.018,-0.0184,-0.0183,-0.0214,-0.0206,-0.0226,-0.0237,-0.0211,-0.0245,-0.0237,-0.0261,-0.0297,-0.026,-0.0287,-0.032,-0.0333,-0.0295,-0.0305,-0.0299,-0.0387,-0.0388,-0.0389,-0.039,0,0,-0.006,-0.0118,-0.0116,-0.0125,-0.0162,-0.0154,-0.0144,-0.0136,-0.0097,-0.0125,-0.007,-0.0107,-0.0109,-0.0117,-0.0157,-0.0162,-0.0148,-0.0218,-0.022,-0.0213,-0.0148,-0.0156,-0.0151,-0.0183,-0.0181,-0.018,-0.0179,0,-0.0027,-0.0039,-0.0072,-0.006,-0.0064,-0.0088,-0.0064,-0.0052,-0.0044,0.0004,-0.001,0.0021,-0.0061,-0.0045,-0.0064,-0.0119,-0.0126,-0.0144,-0.0192,-0.0192,-0.0197,-0.0142,-0.0082,-0.0074,-0.0173,-0.0172,-0.0172,0,0.0015,-0.0002,-0.0001,-0.0001,0.0002,0.0016,0.0072,0.0086,0.0138,0.0154,0.0186,0.0174,0.0182,0.0103,0.0048,0.0037,-0.004,-0.0094,-0.0096,-0.0108,-0.0188,-0.0126,-0.006,-0.0203,-0.0162,-0.0163,-0.0164,0,0.0084,0.0062,0.0066,0.0057,0.0049,0.0081,0.0099,0.0146,0.02,0.0267,0.0331,0.0319,0.0337,0.0253,0.0132,0.0092,0.007,-0.0004,-0.0077,-0.008,-0.0035,-0.0036,-0.0095,-0.0028,-0.0028,-0.0028,-0.0028,0,0.0129,0.0142,0.0103,0.0107,0.0164,0.0149,0.0243,0.0266,0.0348,0.0447,0.0423,0.05,0.0373,0.0339,0.0205,0.01,0.0124,-0.0031,-0.0065,-0.0017,-0.0016,-0.0145,-0.0239,-0.0028,-0.0028,-0.0028,-0.0028,0,0.0201,0.0163,0.0179,0.0177,0.019,0.0241,0.0323,0.0405,0.0464,0.06,0.0635,0.0646,0.0604,0.0476,0.0345,0.0207,0.0038,0.0046,0.011,0.0085,-0.0132,-0.0224,-0.0251,-0.0313,-0.0025,-0.0025,-0.0025,0,0.0226,0.0233,0.0238,0.0262,0.0264,0.0334,0.04,0.0462,0.0559,0.0693,0.0776,0.0784,0.0809,0.0627,0.0411,0.0219,0.0067,0.0114,0.0048,-0.01,-0.0228,-0.0267,-0.0321,0.012,0.0121,0.0122,0.0123,0,0.0275,0.0278,0.0287,0.0335,0.0394,0.0479,0.0577,0.0668,0.0772,0.088,0.1002,0.1034,0.0901,0.0752,0.0493,0.0336,0.0047,0.0126,-0.0031,-0.0103,-0.014,-0.023,0.0057,0.0132,0.0131,0.013,0.013,0.0129,0.0311,0.0337,0.0348,0.0407,0.0488,0.0616,0.0698,0.0815,0.0964,0.112,0.1149,0.1216,0.104,0.0709,0.0476,0.0119,0.0083,-0.0013,-0.0107,-0.0129,-0.0192,0.0112,0.0142,0.0142,0.0141,0.014,0.014,0,0.0324,0.0356,0.0417,0.0492,0.0605,0.0641,0.0809,0.089,0.1046,0.1196,0.1289,0.1308,0.1037,0.073,0.0294,-0.0035,-0.0154,-0.0227,-0.0272,-0.0318,-0.0037,-0.0037,-0.0039,-0.0039,-0.0039,-0.0039,-0.0039,-0.0039,0.0322,0.0368,0.0408,0.0569,0.0649,0.0791,0.0886,0.1,0.1116,0.1287,0.1385,0.1451,0.1328,0.0542,-0.0071,-0.0258,-0.0502,-0.0529,-0.0693,-0.0525,-0.0512,-0.0501,-0.0523,-0.0627,-0.0627,-0.0889,-0.0892,-0.0895]}],[{"header":{"parameterUnit":"m.s-1","parameterCategory":2,"la1":30.2991,"la2":30.254,"lo1":-89.0895,"lo2":-89.0444,"dy":0.0017,"dx":0.0017,"nx":28,"ny":28,"refTime":"2024-08-11T21:00:00:Z","depth":"2","parameterNumber":2,"parameterNumberName":"U-component_of_CURRENTS"},"data":[0,0,0,0,0,0,0,0,0,0,0,0,0,0,0,0,0,0,0,0,0,0,0,0,0,0,0,0,0,0,0,0,0,0,0,0,0,0,0,0,0,0,0,0,0,0,0,0,0,0,0,0,0,0,0,0,0,0,0.1292,0.1292,0,0.1319,0.1319,0.132,0.1309,0.1308,0.1307,0.1307,0.1358,0.136,0.1361,0,0,0,0,0,0,0,0,0,0,0,0,0,0.1282,0.1282,0.1292,0.1292,0.1293,0.1319,0.1319,0.132,0.1309,0.1308,0.1307,0.1306,0.1357,0.1359,0.1362,0,0,0,0,0,0,0,0,0,0,0,0,0,0.1295,0.1282,0.1292,0.129,0.129,0.1319,0.1319,0.132,0.1309,0.1308,0.1307,0.1306,0.1356,0.1359,0.1362,0.1399,0,0,0.1371,0.1372,0,0,0,0,0,0,0,0,0.1295,0.1296,0.129,0.129,0.1291,0.1309,0.1335,0.1348,0.1309,0.1302,0.1307,0.1305,0.1345,0.1348,0.1355,0.1402,0.1404,0.1371,0.1373,0.1374,0.1375,0,0,0,0,0,0,0,0.1294,0.1295,0.1303,0.1291,0.1291,0.1306,0.1306,0.1337,0.1329,0.1302,0.1302,0.1305,0.1345,0.1352,0.1356,0.1405,0.1371,0.1374,0.1376,0.1377,0.1574,0.1577,0,0,0,0,0,0,0.1289,0.1294,0.1302,0.1303,0.129,0.1307,0.1307,0.1304,0.1328,0.133,0.1306,0.1304,0.1348,0.1353,0.1358,0.1465,0.1374,0.1377,0.1379,0.157,0.1574,0.1578,0,0,0,0,0,0,0.1288,0.1289,0.1301,0.13,0.1302,0.1307,0.1305,0.1305,0.1317,0.133,0.1333,0.1317,0.1347,0.1354,0.1409,0.1464,0.1378,0.1381,0.1566,0.1571,0.1576,0.1639,0,0,0,0,0,0,0.1288,0.1289,0.1292,0.1299,0.1302,0.1331,0.1306,0.1307,0.132,0.1319,0.1341,0.1344,0.1347,0.1405,0.1412,0.1466,0.1383,0.1562,0.1568,0.1574,0.1632,0.1646,0.1657,0,0,0,0,0,0.1287,0.1297,0.1292,0.1294,0.1304,0.1333,0.1337,0.1337,0.1322,0.1341,0.1361,0.1344,0.1451,0.1409,0.1417,0.1474,0.1558,0.1566,0.1574,0.1627,0.1643,0.1656,0,0,0,0,0,0,0.1291,0.1297,0.1292,0.13,0.1321,0.1331,0.1347,0.1345,0.1374,0.1371,0.1377,0.1384,0.1456,0.1463,0.1416,0.1556,0.1507,0.1517,0.1545,0.156,0.1572,0.1581,0.1386,0,0,0,0,0,0.1294,0.1303,0.1314,0.1323,0.1335,0.1342,0.1354,0.1355,0.1376,0.1386,0.1402,0.1438,0.1497,0.1522,0.1562,0.1631,0.1647,0.168,0.1692,0.1702,0.1719,0.1789,0.1808,0.1604,0.1604,0.1603,0,0,0.1297,0.1302,0.1306,0.1326,0.1338,0.1381,0.1347,0.137,0.1415,0.1391,0.1454,0.1475,0.1525,0.1605,0.1639,0.1615,0.1773,0.1712,0.172,0.1732,0.1799,0.1818,0.1835,0.1609,0.1608,0.1607,0,0,0.1325,0.1314,0.1343,0.1366,0.1391,0.1404,0.1415,0.1433,0.1452,0.151,0.152,0.1581,0.164,0.1701,0.1739,0.1849,0.1832,0.1858,0.1927,0.1995,0.2011,0.2026,0.2078,0.2097,0.1866,0.1866,0.1866,0,0.1334,0.1363,0.1359,0.1402,0.1428,0.1422,0.1472,0.1502,0.1538,0.1567,0.1541,0.1666,0.1701,0.1828,0.187,0.1878,0.1896,0.1858,0.2008,0.2023,0.2037,0.2086,0.2106,0.187,0.187,0.1869,0.1869,0,0.139,0.1421,0.1441,0.1495,0.1527,0.1561,0.1601,0.1637,0.1646,0.1671,0.1766,0.1811,0.1883,0.1917,0.1929,0.2061,0.2034,0.2007,0.1959,0.206,0.2107,0.2126,0.1876,0.1875,0.1873,0.1872,0,0,0.1396,0.1467,0.1478,0.1504,0.1573,0.1592,0.1688,0.176,0.1801,0.1848,0.1916,0.2036,0.2027,0.2073,0.2095,0.2164,0.2285,0.2129,0.213,0.2161,0.242,0.2231,0.2234,0.2266,0.2269,0.2273,0.2413,0,0.1446,0.1521,0.1561,0.1639,0.1675,0.1716,0.1791,0.1853,0.1899,0.1959,0.2028,0.2091,0.2098,0.2119,0.2201,0.2256,0.2339,0.2249,0.2335,0.2338,0.2142,0.2251,0.2059,0.2152,0.2432,0.2435,0.2437,0,0.15,0.1533,0.161,0.1679,0.17,0.1745,0.1833,0.1903,0.2007,0.2037,0.2124,0.2154,0.2289,0.2249,0.2427,0.2359,0.2412,0.2448,0.2453,0.2267,0.2185,0.2099,0.2176,0.2469,0.2467,0.2464,0.2462,0,0.1477,0.1573,0.1619,0.1645,0.1727,0.1764,0.1811,0.1913,0.1981,0.2078,0.2128,0.2252,0.232,0.2412,0.2499,0.2467,0.2657,0.262,0.2515,0.2502,0.2352,0.2317,0.2761,0.2761,0.2761,0.276,0.276,0,0.1506,0.1541,0.1594,0.1609,0.1662,0.1721,0.1795,0.1862,0.1971,0.2066,0.2149,0.2244,0.2363,0.2477,0.2536,0.2577,0.2698,0.2552,0.2533,0.2366,0.2333,0.2611,0.2592,0.2765,0.2764,0.2763,0.2762,0,0.1476,0.1522,0.1568,0.1629,0.165,0.1676,0.1784,0.1847,0.1937,0.2071,0.2108,0.2273,0.238,0.248,0.2629,0.2611,0.2668,0.2658,0.2436,0.2385,0.2464,0.2448,0.2559,0.2553,0.2549,0.2545,0.2542,0,0.146,0.1479,0.1554,0.1585,0.161,0.1661,0.1717,0.1817,0.1897,0.2095,0.2162,0.2296,0.2354,0.2462,0.2451,0.248,0.2594,0.232,0.2219,0.2478,0.2449,0.2439,0.2429,0.2077,0.207,0.2064,0.206,0,0.1417,0.1449,0.1484,0.1555,0.1606,0.1679,0.1755,0.1807,0.1951,0.2037,0.2162,0.2206,0.2268,0.2176,0.2167,0.2166,0.2278,0.22,0.2589,0.2108,0.202,0.1992,0.2,0.2011,0.2016,0.202,0.2022,0.2024,0.1376,0.1405,0.1466,0.1537,0.1603,0.1681,0.1719,0.1792,0.1873,0.1928,0.2026,0.1983,0.1999,0.1823,0.1811,0.1805,0.1941,0.1887,0.1907,0.1932,0.1802,0.1705,0.1615,0.1617,0.1619,0.1621,0.1623,0,0.1347,0.1407,0.1454,0.1538,0.1594,0.1661,0.1748,0.1746,0.1786,0.1759,0.1741,0.1525,0.1439,0.1493,0.1398,0.1385,0.1413,0.1347,0.1398,0.1445,0.1487,0.1337,0.1026,0.1025,0.1024,0.1022,0,0,0.1341,0.1385,0.1426,0.1505,0.1577,0.1641,0.1687,0.1652,0.1613,0.1417,0.1307,0.1265,0.1386,0.1162,0.1149,0.1093,0.1262,0.1041,0.1513,0.1617,0.1658,0.1781,0.1598,0,0,0,0,0]},{"header":{"parameterUnit":"m.s-1","parameterCategory":2,"la1":30.2991,"la2":30.254,"lo1":-89.0895,"lo2":-89.0444,"dy":0.0017,"dx":0.0017,"nx":28,"ny":28,"refTime":"2024-08-11T21:00:00:Z","depth":"2","parameterNumber":3,"parameterNumberName":"V-component_of_CURRENTS"},"data":[0,0,0,0,0,0,0,0,0,0,0,0,0,0,0,0,0,0,0,0,0,0,0,0,0,0,0,0,0,0,0,0,0,0,0,0,0,0,0,0,0,0,0,0,0,0,0,0,0,0,0,0,0,0,0,0,0,0,-0.0273,-0.0274,0,-0.0367,-0.0368,-0.0369,-0.0415,-0.0415,-0.0414,-0.0414,-0.0439,-0.044,-0.044,0,0,0,0,0,0,0,0,0,0,0,0,0,-0.0187,-0.0188,-0.0273,-0.0274,-0.0275,-0.0367,-0.0368,-0.037,-0.0415,-0.0415,-0.0414,-0.0414,-0.0439,-0.044,-0.0441,0,0,0,0,0,0,0,0,0,0,0,0,0,-0.0247,-0.0188,-0.0273,-0.0309,-0.0313,-0.0367,-0.0368,-0.037,-0.0415,-0.0415,-0.0414,-0.0414,-0.0439,-0.044,-0.0441,-0.0449,0,0,-0.0444,-0.0444,0,0,0,0,0,0,0,0,-0.0243,-0.025,-0.0302,-0.0306,-0.0311,-0.0379,-0.0347,-0.0393,-0.0415,-0.0376,-0.0414,-0.0414,-0.0412,-0.0415,-0.0435,-0.0451,-0.0452,-0.0444,-0.0445,-0.0445,-0.0446,0,0,0,0,0,0,0,-0.0239,-0.0247,-0.0311,-0.0303,-0.0309,-0.0338,-0.0346,-0.0356,-0.0393,-0.038,-0.0383,-0.0393,-0.0414,-0.0434,-0.0436,-0.0452,-0.0444,-0.0445,-0.0446,-0.0446,-0.044,-0.0439,0,0,0,0,0,0,-0.0224,-0.0242,-0.0308,-0.0313,-0.0276,-0.034,-0.0349,-0.0357,-0.0394,-0.04,-0.0393,-0.0395,-0.0432,-0.0434,-0.0437,-0.0405,-0.0445,-0.0446,-0.0447,-0.0441,-0.044,-0.0439,0,0,0,0,0,0,-0.0222,-0.0229,-0.0304,-0.028,-0.0291,-0.0341,-0.0351,-0.0359,-0.0378,-0.0405,-0.041,-0.0402,-0.0432,-0.0435,-0.0439,-0.0408,-0.0447,-0.0448,-0.0441,-0.044,-0.0439,-0.037,0,0,0,0,0,0,-0.0219,-0.0228,-0.0232,-0.0279,-0.0292,-0.0323,-0.0351,-0.0361,-0.0384,-0.0387,-0.0415,-0.0417,-0.0432,-0.0438,-0.044,-0.041,-0.0449,-0.0443,-0.0441,-0.0439,-0.0373,-0.0366,-0.0361,0,0,0,0,0,-0.0215,-0.0216,-0.0231,-0.0239,-0.0295,-0.0323,-0.0332,-0.0368,-0.0384,-0.0386,-0.0406,-0.0416,-0.0429,-0.0438,-0.0442,-0.0411,-0.0443,-0.0441,-0.044,-0.0376,-0.0368,-0.0361,0,0,0,0,0,0,-0.0177,-0.0222,-0.024,-0.0253,-0.0281,-0.033,-0.0338,-0.0365,-0.0387,-0.0386,-0.0414,-0.0417,-0.0408,-0.0423,-0.0432,-0.0405,-0.0435,-0.0433,-0.0385,-0.0377,-0.0371,-0.0333,-0.0449,0,0,0,0,0,-0.0171,-0.0182,-0.0227,-0.0234,-0.0247,-0.0293,-0.0311,-0.0333,-0.0359,-0.037,-0.0388,-0.0401,-0.0405,-0.0402,-0.0413,-0.0401,-0.0412,-0.0381,-0.0375,-0.037,-0.0341,-0.034,-0.0331,-0.0433,-0.0433,-0.0433,0,0,-0.0156,-0.0183,-0.0189,-0.0227,-0.0252,-0.0265,-0.0303,-0.032,-0.0323,-0.0366,-0.0367,-0.0383,-0.0399,-0.0385,-0.0381,-0.0391,-0.0351,-0.0367,-0.0362,-0.0336,-0.0337,-0.0327,-0.0318,-0.0431,-0.0432,-0.0432,0,0,-0.0131,-0.0156,-0.016,-0.0179,-0.0213,-0.024,-0.0242,-0.0284,-0.0292,-0.0301,-0.0325,-0.0318,-0.0339,-0.0332,-0.0334,-0.0298,-0.0323,-0.0304,-0.0234,-0.0234,-0.0225,-0.0217,-0.0236,-0.023,-0.0295,-0.0295,-0.0295,0,-0.011,-0.0122,-0.0162,-0.017,-0.0173,-0.0224,-0.0217,-0.0239,-0.0274,-0.0259,-0.0288,-0.0286,-0.0306,-0.0268,-0.0255,-0.028,-0.0293,-0.0261,-0.0224,-0.0216,-0.021,-0.023,-0.0225,-0.0291,-0.0292,-0.0292,-0.0292,0,-0.0096,-0.0099,-0.0097,-0.0122,-0.0132,-0.0131,-0.0162,-0.0165,-0.0183,-0.0194,-0.0166,-0.0193,-0.018,-0.019,-0.0212,-0.0162,-0.0194,-0.0222,-0.024,-0.0195,-0.022,-0.0216,-0.0286,-0.0288,-0.0289,-0.029,0,0,-0.0053,-0.0081,-0.0076,-0.0066,-0.0099,-0.0099,-0.0094,-0.0086,-0.0063,-0.0085,-0.0046,-0.0049,-0.0052,-0.0053,-0.0075,-0.0071,-0.0051,-0.0116,-0.0118,-0.0127,-0.0061,-0.0119,-0.0121,-0.0075,-0.0073,-0.0072,-0.0105,0,-0.0021,-0.0008,-0.0033,-0.0004,0.0005,-0.0019,-0.0002,0.0,-0.0006,0.0015,0.0012,0.0031,-0.0005,0.0007,0.0011,-0.0039,-0.0033,-0.004,-0.0108,-0.0109,-0.016,-0.0114,-0.0109,-0.014,-0.0101,-0.01,-0.01,0,0.0004,0.0013,0.0047,0.0076,0.0081,0.0091,0.013,0.0135,0.0148,0.0152,0.0175,0.0154,0.0174,0.0122,0.0094,0.0089,0.0037,-0.0008,-0.0012,-0.0077,-0.0157,-0.0175,-0.0134,-0.0093,-0.0093,-0.0094,-0.0094,0,0.0062,0.008,0.0119,0.0123,0.0133,0.0164,0.0175,0.019,0.021,0.0239,0.0254,0.0269,0.0266,0.0223,0.0128,0.0116,0.0074,0.0035,-0.0061,-0.0068,-0.0079,-0.0089,0.0031,0.0031,0.0031,0.0031,0.0031,0,0.0105,0.0137,0.0154,0.0171,0.0232,0.0227,0.0286,0.0296,0.0321,0.0355,0.0334,0.0351,0.0291,0.0246,0.0165,0.0065,0.0102,-0.0027,-0.0066,-0.006,-0.0067,-0.0037,-0.0045,0.0029,0.003,0.003,0.003,0,0.0135,0.0152,0.0192,0.023,0.0251,0.0288,0.0331,0.0363,0.0388,0.0425,0.0438,0.0418,0.0361,0.0277,0.019,0.0102,0.0013,-0.0033,-0.0031,-0.0069,-0.0138,-0.0141,-0.013,-0.0132,-0.0134,-0.0135,-0.0136,0,0.014,0.0166,0.0223,0.025,0.0264,0.0319,0.0351,0.0391,0.0418,0.0457,0.0472,0.0442,0.0426,0.0271,0.012,-0.0017,-0.0023,-0.0119,-0.0135,-0.0107,-0.0147,-0.0148,-0.015,-0.0132,-0.0134,-0.0134,-0.0135,0,0.0142,0.0168,0.0198,0.0262,0.0306,0.0353,0.0405,0.0442,0.0487,0.0539,0.0575,0.0575,0.0417,0.0278,0.0074,-0.0026,-0.0096,-0.0144,-0.0093,-0.0101,-0.0115,-0.0153,-0.0153,-0.0143,-0.0142,-0.0141,-0.0141,-0.0141,0.0143,0.0165,0.0222,0.0281,0.0327,0.0391,0.0454,0.051,0.0594,0.0671,0.063,0.0635,0.0445,0.019,0.0017,-0.0163,-0.0161,-0.0224,-0.0219,-0.0213,-0.0216,-0.0232,-0.0284,-0.0284,-0.0284,-0.0284,-0.0284,0,0.017,0.0208,0.0242,0.0332,0.0387,0.0418,0.0497,0.0571,0.0697,0.0717,0.076,0.0571,0.0403,0.021,-0.0066,-0.0243,-0.0229,-0.029,-0.0233,-0.0226,-0.0219,-0.0219,-0.0289,-0.029,-0.029,-0.029,0,0,0.02,0.0252,0.0275,0.0385,0.0446,0.0554,0.0617,0.0716,0.0765,0.08,0.0787,0.0703,0.0459,0.0251,0.0014,-0.0124,-0.0125,-0.0151,-0.0135,-0.0033,-0.0023,-0.0179,-0.0172,0,0,0,0,0]}],[{"header":{"parameterUnit":"m.s-1","parameterCategory":2,"la1":30.2991,"la2":30.254,"lo1":-89.0895,"lo2":-89.0444,"dy":0.0017,"dx":0.0017,"nx":28,"ny":28,"refTime":"2024-08-11T21:00:00:Z","depth":"4","parameterNumber":2,"parameterNumberName":"U-component_of_CURRENTS"},"data":[0,0,0,0,0,0,0,0,0,0,0,0,0,0,0,0,0,0,0,0,0,0,0,0,0,0,0,0,0,0,0,0,0,0,0,0,0,0,0,0,0,0,0,0,0,0,0,0,0,0,0,0,0,0,0,0,0,0,0.0697,0.0697,0,0.0709,0.071,0.071,0.0742,0.0743,0.0744,0.0744,0.0761,0.0761,0.0761,0,0,0,0,0,0,0,0,0,0,0,0,0,0.0657,0.0658,0.0697,0.0697,0.0697,0.0709,0.071,0.071,0.0742,0.0743,0.0744,0.0745,0.0761,0.0761,0.0761,0,0,0,0,0,0,0,0,0,0,0,0,0,0.0673,0.0659,0.0697,0.0714,0.0716,0.0709,0.071,0.071,0.0742,0.0743,0.0744,0.0745,0.0761,0.0761,0.0761,0.074,0,0,0.076,0.076,0,0,0,0,0,0,0,0,0.0673,0.0675,0.0712,0.0713,0.0715,0.0725,0.0702,0.072,0.0742,0.0733,0.0744,0.0745,0.0748,0.0749,0.075,0.0741,0.0742,0.076,0.076,0.076,0.076,0,0,0,0,0,0,0,0.0671,0.0674,0.0703,0.0712,0.0714,0.0706,0.071,0.0705,0.0736,0.0734,0.0736,0.0736,0.0749,0.075,0.0751,0.0742,0.076,0.076,0.076,0.076,0.0813,0.0815,0,0,0,0,0,0,0.067,0.0674,0.0702,0.0703,0.0695,0.0706,0.0711,0.0721,0.0736,0.0739,0.0735,0.0737,0.075,0.0751,0.0752,0.0797,0.076,0.076,0.0759,0.0812,0.0814,0.0815,0,0,0,0,0,0,0.0669,0.0673,0.0702,0.0687,0.069,0.0706,0.0718,0.0721,0.074,0.0737,0.074,0.0753,0.0751,0.0752,0.0767,0.0795,0.0759,0.0759,0.081,0.0812,0.0815,0.0843,0,0,0,0,0,0,0.0668,0.0673,0.0684,0.0688,0.0691,0.0706,0.0717,0.072,0.0737,0.0741,0.0752,0.0754,0.0752,0.0767,0.0766,0.0794,0.0759,0.0808,0.0811,0.0814,0.084,0.0846,0.0852,0,0,0,0,0,0.0667,0.0664,0.0685,0.0689,0.0706,0.0705,0.0707,0.0721,0.0737,0.0743,0.0759,0.0755,0.0786,0.0767,0.0766,0.0795,0.0807,0.081,0.0814,0.0838,0.0845,0.0851,0,0,0,0,0,0,0.0649,0.0667,0.069,0.0695,0.0709,0.0711,0.0712,0.0729,0.0745,0.0754,0.0759,0.0761,0.0788,0.0788,0.0767,0.0823,0.0802,0.0805,0.0821,0.0827,0.0833,0.0835,0.0759,0,0,0,0,0,0.0653,0.0664,0.068,0.0688,0.0692,0.071,0.0714,0.0728,0.0739,0.0748,0.0762,0.0781,0.0799,0.0809,0.0818,0.0837,0.0832,0.0862,0.0867,0.0872,0.0876,0.0894,0.09,0.0827,0.0827,0.0827,0,0,0.0648,0.0661,0.0668,0.0687,0.0697,0.0713,0.0715,0.0724,0.075,0.0745,0.0783,0.0793,0.0807,0.0835,0.0849,0.084,0.089,0.0876,0.088,0.0881,0.0898,0.0905,0.0911,0.0829,0.0829,0.0829,0,0,0.0639,0.0657,0.0666,0.0681,0.0701,0.0712,0.0721,0.0739,0.0759,0.0792,0.0803,0.0831,0.0857,0.0874,0.0886,0.0927,0.0914,0.0939,0.097,0.0987,0.0993,0.0998,0.0992,0.0997,0.0946,0.0946,0.0946,0,0.0631,0.0657,0.0666,0.0683,0.0698,0.0719,0.0736,0.0756,0.0785,0.0801,0.0813,0.0869,0.0879,0.0916,0.094,0.0939,0.0938,0.0939,0.0993,0.0998,0.1002,0.0995,0.1,0.0948,0.0947,0.0947,0.0947,0,0.0637,0.0664,0.0665,0.0706,0.072,0.0732,0.0763,0.0786,0.0819,0.0846,0.0893,0.0912,0.0951,0.0964,0.0967,0.1011,0.0995,0.0991,0.097,0.1011,0.1001,0.1005,0.095,0.095,0.0949,0.0949,0,0,0.0593,0.0657,0.0661,0.0691,0.0734,0.0742,0.0783,0.0819,0.0851,0.0895,0.0943,0.0983,0.1003,0.1019,0.1029,0.1048,0.108,0.104,0.104,0.1024,0.1104,0.1045,0.1043,0.1084,0.1086,0.1086,0.108,0,0.0596,0.0636,0.067,0.0714,0.0733,0.0771,0.0809,0.0849,0.0887,0.0938,0.0974,0.1021,0.1023,0.105,0.1073,0.1081,0.1093,0.1081,0.1076,0.1076,0.101,0.1048,0.109,0.1083,0.1084,0.1084,0.1085,0,0.0585,0.062,0.0661,0.0728,0.0739,0.0776,0.0831,0.087,0.0937,0.0973,0.1026,0.1055,0.1105,0.1101,0.1134,0.1126,0.1123,0.1119,0.1119,0.1057,0.1025,0.1038,0.1092,0.1091,0.1091,0.109,0.109,0,0.0539,0.0607,0.0643,0.0665,0.0743,0.0774,0.082,0.0882,0.0918,0.1,0.1035,0.1095,0.1139,0.1149,0.1158,0.1151,0.1179,0.1165,0.11,0.1095,0.1134,0.1129,0.118,0.118,0.1181,0.1181,0.1181,0,0.0514,0.0546,0.0632,0.0651,0.0699,0.0763,0.0817,0.0867,0.0949,0.0993,0.1058,0.109,0.1157,0.118,0.1172,0.1151,0.1192,0.1109,0.1096,0.1146,0.1142,0.1136,0.1131,0.118,0.118,0.118,0.118,0,0.0456,0.0514,0.0558,0.0648,0.0678,0.0714,0.0814,0.0852,0.0933,0.0995,0.1025,0.1107,0.1142,0.1176,0.1199,0.1164,0.1146,0.1123,0.1168,0.1157,0.1043,0.104,0.1048,0.1046,0.1044,0.1043,0.1042,0,0.0433,0.0448,0.0537,0.0568,0.0616,0.0684,0.073,0.0832,0.0871,0.098,0.1,0.1076,0.1119,0.1101,0.1141,0.113,0.1115,0.1089,0.1073,0.1046,0.1033,0.1032,0.1031,0.1039,0.1039,0.1038,0.1038,0,0.0387,0.0419,0.0459,0.0516,0.0572,0.0624,0.0702,0.0724,0.0836,0.0914,0.0959,0.0988,0.1034,0.1061,0.1075,0.1056,0.1099,0.1071,0.1074,0.1059,0.1036,0.1024,0.1025,0.1032,0.1033,0.1033,0.1034,0,0.0353,0.0364,0.0417,0.0465,0.0526,0.0563,0.0606,0.067,0.0726,0.0855,0.086,0.0942,0.1023,0.102,0.1017,0.102,0.1001,0.0952,0.0961,0.0967,0.0947,0.0906,0.0855,0,0,0,0,0,0.0325,0.0339,0.0369,0.0422,0.0475,0.0515,0.0591,0.0636,0.0736,0.0749,0.0812,0.085,0.0887,0.0917,0.0905,0.0969,0.0994,0.0948,0.0939,0.1,0.1007,0.0991,0,0,0,0,0,0,0.031,0.034,0.0352,0.0381,0.0406,0.0461,0.0506,0.0568,0.0582,0.0685,0.0709,0.079,0.0835,0.0893,0.0887,0.0898,0.0871,0.1002,0.0999,0.0996,0.1002,0.1008,0.0994,0,0,0,0,0]},{"header":{"parameterUnit":"m.s-1","parameterCategory":2,"la1":30.2991,"la2":30.254,"lo1":-89.0895,"lo2":-89.0444,"dy":0.0017,"dx":0.0017,"nx":28,"ny":28,"refTime":"2024-08-11T21:00:00:Z","depth":"4","parameterNumber":3,"parameterNumberName":"V-component_of_CURRENTS"},"data":[0,0,0,0,0,0,0,0,0,0,0,0,0,0,0,0,0,0,0,0,0,0,0,0,0,0,0,0,0,0,0,0,0,0,0,0,0,0,0,0,0,0,0,0,0,0,0,0,0,0,0,0,0,0,0,0,0,0,-0.0067,-0.0068,0,-0.0111,-0.0112,-0.0112,-0.0131,-0.0131,-0.013,-0.013,-0.0114,-0.0114,-0.0114,0,0,0,0,0,0,0,0,0,0,0,0,0,0.0026,0.0024,-0.0067,-0.0068,-0.0068,-0.0111,-0.0112,-0.0113,-0.0131,-0.0131,-0.013,-0.013,-0.0115,-0.0114,-0.0114,0,0,0,0,0,0,0,0,0,0,0,0,0,-0.0017,0.0024,-0.0067,-0.0082,-0.0084,-0.0111,-0.0112,-0.0113,-0.0131,-0.0131,-0.013,-0.013,-0.0115,-0.0114,-0.0114,-0.0116,0,0,-0.0113,-0.0112,0,0,0,0,0,0,0,0,-0.0014,-0.002,-0.0079,-0.0081,-0.0083,-0.0115,-0.0073,-0.0111,-0.0131,-0.0114,-0.013,-0.013,-0.0109,-0.0109,-0.012,-0.0116,-0.0115,-0.0113,-0.0112,-0.0112,-0.0112,0,0,0,0,0,0,0,-0.0011,-0.0018,-0.0085,-0.008,-0.0082,-0.0078,-0.0084,-0.0081,-0.0112,-0.0115,-0.0116,-0.012,-0.0109,-0.012,-0.0119,-0.0115,-0.0113,-0.0112,-0.0112,-0.0112,-0.0093,-0.0092,0,0,0,0,0,0,-0.0006,-0.0016,-0.0084,-0.0087,-0.0046,-0.008,-0.0086,-0.0105,-0.0113,-0.0114,-0.012,-0.0121,-0.0121,-0.012,-0.0118,-0.0107,-0.0112,-0.0112,-0.0112,-0.0093,-0.0093,-0.0092,0,0,0,0,0,0,-0.0004,-0.0013,-0.0082,-0.005,-0.0059,-0.0082,-0.0102,-0.0106,-0.0119,-0.0117,-0.0117,-0.0129,-0.0121,-0.0119,-0.0114,-0.0107,-0.0112,-0.0111,-0.0093,-0.0093,-0.0093,-0.0094,0,0,0,0,0,0,-0.0002,-0.0012,-0.0023,-0.0051,-0.0061,-0.0095,-0.0103,-0.0107,-0.0121,-0.0122,-0.0124,-0.0123,-0.012,-0.0114,-0.0113,-0.0107,-0.0111,-0.0094,-0.0093,-0.0093,-0.0094,-0.0094,-0.0093,0,0,0,0,0,0.0001,-0.0022,-0.0024,-0.0032,-0.0076,-0.0095,-0.0099,-0.0114,-0.0121,-0.0125,-0.0126,-0.0123,-0.011,-0.0114,-0.0113,-0.0106,-0.0094,-0.0093,-0.0093,-0.0094,-0.0094,-0.0093,0,0,0,0,0,0,0.0002,-0.0026,-0.003,-0.0063,-0.0072,-0.0097,-0.0108,-0.0116,-0.0123,-0.0124,-0.0123,-0.0121,-0.0112,-0.011,-0.0114,-0.0098,-0.01,-0.0099,-0.0102,-0.0101,-0.01,-0.0111,-0.0111,0,0,0,0,0,0.0001,-0.0022,-0.0039,-0.0066,-0.0069,-0.0087,-0.0097,-0.0105,-0.0115,-0.012,-0.0119,-0.0116,-0.011,-0.0106,-0.0101,-0.0095,-0.0107,-0.0088,-0.0088,-0.0087,-0.0095,-0.0114,-0.0116,-0.009,-0.009,-0.009,0,0,-0.001,-0.0026,-0.0042,-0.0066,-0.0077,-0.0077,-0.0093,-0.0109,-0.0105,-0.0114,-0.0112,-0.0114,-0.0108,-0.01,-0.0096,-0.0097,-0.0099,-0.0087,-0.0086,-0.0094,-0.0114,-0.0117,-0.0119,-0.009,-0.009,-0.009,0,0,-0.0023,-0.0052,-0.006,-0.0063,-0.0072,-0.008,-0.0081,-0.0098,-0.0101,-0.01,-0.0103,-0.0109,-0.0096,-0.0098,-0.0095,-0.0089,-0.0095,-0.0078,-0.0086,-0.0104,-0.0107,-0.0109,-0.0121,-0.0125,-0.0079,-0.0079,-0.0079,0,-0.0032,-0.0044,-0.0064,-0.0059,-0.0061,-0.0077,-0.0071,-0.0077,-0.0089,-0.0093,-0.0093,-0.01,-0.0096,-0.0096,-0.0094,-0.0089,-0.0098,-0.0089,-0.0105,-0.0107,-0.011,-0.0122,-0.0126,-0.0079,-0.0079,-0.0079,-0.0079,0,-0.0032,-0.004,-0.0046,-0.0043,-0.0046,-0.0052,-0.0052,-0.0056,-0.0063,-0.0072,-0.0078,-0.0086,-0.0093,-0.0089,-0.009,-0.0103,-0.0103,-0.0102,-0.011,-0.0113,-0.0125,-0.0129,-0.0079,-0.0079,-0.0079,-0.0079,0,0,-0.0059,-0.0047,-0.0048,-0.0037,-0.0037,-0.0042,-0.0035,-0.0038,-0.004,-0.0053,-0.0062,-0.0067,-0.0089,-0.0088,-0.0094,-0.0113,-0.0139,-0.0117,-0.0118,-0.0135,-0.0177,-0.0168,-0.0172,-0.0143,-0.0144,-0.0144,-0.0176,0,-0.005,-0.0032,-0.003,-0.0017,-0.0009,-0.0015,-0.0008,-0.0014,-0.0023,-0.0034,-0.0058,-0.0064,-0.0081,-0.0086,-0.0112,-0.0127,-0.0151,-0.013,-0.0167,-0.0168,-0.0164,-0.0177,-0.0147,-0.0179,-0.018,-0.0181,-0.0181,0,-0.0042,-0.003,-0.001,0.0002,0.0004,0.0009,0.0008,0.0013,-0.0006,-0.0013,-0.004,-0.0057,-0.0087,-0.0099,-0.0149,-0.0134,-0.0162,-0.0179,-0.0181,-0.0177,-0.0167,-0.0176,-0.0189,-0.0189,-0.0188,-0.0188,-0.0187,0,-0.0041,-0.0021,-0.0004,0.0001,0.0015,0.0019,0.0021,0.0012,0.0023,-0.0006,-0.0003,-0.0052,-0.0062,-0.0112,-0.015,-0.0151,-0.0204,-0.0207,-0.0227,-0.0226,-0.0225,-0.0222,-0.0253,-0.0253,-0.0253,-0.0253,-0.0253,0,-0.0032,-0.0021,-0.0002,0.0006,0.0026,0.0025,0.0039,0.0034,0.0032,0.0048,0.0004,0.0007,-0.0067,-0.01,-0.015,-0.0199,-0.0205,-0.0236,-0.0238,-0.0222,-0.0219,-0.0228,-0.0224,-0.0254,-0.0254,-0.0254,-0.0254,0,-0.0023,-0.0016,0.0006,0.0023,0.0029,0.0042,0.0067,0.0082,0.0072,0.0092,0.0089,0.005,0.0,-0.0068,-0.0142,-0.0182,-0.0236,-0.0252,-0.0227,-0.0225,-0.0248,-0.0245,-0.0286,-0.0286,-0.0286,-0.0286,-0.0286,0,-0.0005,0.0003,0.0026,0.0045,0.0056,0.0078,0.0102,0.0102,0.0125,0.0128,0.0144,0.0097,0.0064,-0.0032,-0.0119,-0.0222,-0.0235,-0.0262,-0.027,-0.0256,-0.0254,-0.025,-0.0246,-0.0286,-0.0286,-0.0286,-0.0286,0,0.0031,0.0029,0.0051,0.0084,0.0109,0.0144,0.0174,0.0194,0.0204,0.02,0.02,0.0141,0.0081,-0.002,-0.0101,-0.0173,-0.0246,-0.0262,-0.0263,-0.0271,-0.0257,-0.0254,-0.025,-0.0286,-0.0286,-0.0286,-0.0286,0,0.0065,0.008,0.0099,0.0127,0.0163,0.0198,0.021,0.024,0.0254,0.0255,0.0254,0.0178,0.0127,0.0006,-0.0065,-0.0143,-0.0168,-0.0187,-0.0192,-0.0193,-0.016,-0.0128,-0.0126,0,0,0,0,0,0.0098,0.0105,0.0142,0.0164,0.0202,0.0213,0.0259,0.027,0.0278,0.029,0.0273,0.0217,0.01,0.0041,-0.0035,-0.0079,-0.0189,-0.0171,-0.0215,-0.0287,-0.0287,-0.0264,0,0,0,0,0,0,0.0114,0.0143,0.0145,0.0192,0.0209,0.0248,0.0273,0.0283,0.0288,0.0285,0.0222,0.0194,0.0073,0.0136,-0.0042,-0.0067,-0.0104,-0.023,-0.0232,-0.0287,-0.0287,-0.0287,-0.0264,0,0,0,0,0]}]]